Temp
65 63 59 65 68 68 64 62 61 67 65 60 63 65 70 75 76 75 76 76 78 80 84 83 82 79 76 75 74 74 72 70 71 69 67 68 65 63 63 65 64 64 64 63
60 57 67 65 65 62 62 60 60 66 63 58 63 63 69 72 73 75 76 77 79 81 82 83 81 79 74 73 72 72 71 70 70 70 69 69 68 65 62 60 60 60 58 60
59 62 64 61 59 58 60 59 60 60 60 61 58 59 66 74 75 75 76 78 78 80 81 83 80 77 74 71 70 70 70 70 70 69 69 68 67 62 57 55 55 54 55 56
60 65 58 57 57 61 55 66 61 59 55 52 60 51 64 70 72 75 76 76 78 79 80 80 81 77 73 71 71 70 70 69 69 68 67 64 59 57 59 59 55 52 52 52
58 55 54 54 58 62 58 58 58 56 53 53 54 49 60 69 67 70 75 77 79 80 81 80 78 76 76 71 69 69 69 68 68 67 67 64 60 63 63 60 54 53 50 50
58 58 60 60 56 60 59 56 55 54 53 44 54 53 57 65 69 74 76 77 78 79 78 77 76 75 73 71 68 66 67 66 67 66 65 63 61 63 61 57 55 52 49 46
55 54 57 57 52 55 57 54 45 43 40 42 53 51 58 67 71 72 73 74 77 75 74 74 71 67 67 66 64 64 64 64 65 64 64 63 63 63 61 57 55 51 47 44
48 45 53 56 57 54 51 55 46 36 40 46 44 43 57 69 72 69 69 71 71 72 71 70 72 70 66 63 62 62 62 62 64 63 62 62 63 63 63 61 57 52 50 48
51 48 57 57 60 62 52 46 58 46 39 39 49 57 66 68 64 67 70 71 71 72 71 68 69 71 68 63 61 61 61 61 62 62 62 61 62 61 61 60 60 56 53 51
56 46 51 52 55 56 54 59 44 46 34 33 46 50 53 61 66 69 69 69 71 71 69 70 69 68 65 64 62 61 61 60 60 61 61 60 60 60 61 59 57 57 56 51
57 51 45 50 49 51 49 48 49 51 47 38 38 48 66 66 67 66 67 66 67 68 67 67 69 66 63 61 60 60 59 59 58 59 58 58 58 58 58 57 56 53 51 47
56 51 43 48 57 57 58 53 52 42 40 45 42 45 67 67 66 65 64 67 67 66 67 66 65 64 61 59 58 58 58 57 57 58 57 56 57 55 55 54 53 51 48 45
53 42 33 39 48 49 47 53 53 53 44 37 36 44 65 68 67 66 64 67 67 66 66 67 65 64 64 63 60 58 57 57 56 56 55 55 54 54 53 52 51 49 45 43
48 38 39 38 47 51 43 47 51 49 39 41 43 49 58 62 64 67 67 64 67 69 66 69 67 69 67 65 64 61 59 58 55 54 53 52 52 52 52 52 50 46 44 42
42 33 37 42 46 46 45 46 47 46 49 43 47 49 56 60 63 66 69 69 68 68 68 67 64 65 68 67 62 60 60 58 56 53 51 51 51 52 51 48 47 44 43 42
40 32 35 32 40 41 36 41 45 47 48 48 50 50 62 65 66 65 65 66 65 66 66 67 68 64 62 65 64 60 59 57 54 52 49 51 48 46 44 43 41 39 39 38
39 35 32 29 39 39 31 37 42 45 49 49 43 52 59 59 61 62 64 64 64 65 66 66 66 66 65 63 61 61 59 55 49 46 43 41 42 41 41 40 38 37 36 36
35 33 32 28 32 23 41 53 52 48 50 52 51 53 56 58 61 61 64 63 63 64 64 65 65 66 66 63 59 59 52 49 44 42 39 39 39 38 38 37 36 36 36 34
44 37 30 25 27 35 41 47 46 44 45 55 53 55 57 59 59 60 65 65 64 64 64 61 57 55 56 55 54 47 43 43 41 40 39 38 38 36 36 35 35 35 34 33
43 43 33 30 24 22 40 49 54 53 35 48 44 45 45 52 47 55 59 56 56 57 54 50 49 50 51 52 48 41 40 39 38 38 38 38 36 35 35 35 34 34 34 33
31 31 27 27 25 31 43 48 52 31 35 37 41 43 41 41 47 51 52 53 52 47 45 46 47 48 47 44 37 37 38 36 37 36 36 35 35 34 35 34 34 33 32 30
31 29 29 31 26 24 43 45 38 39 41 42 43 44 43 45 46 47 50 47 46 45 43 42 40 42 42 37 35 35 35 34 33 33 33 32 32 33 33 32 32 32 30 29
27 35 32 34 35 45 46 44 46 41 39 41 40 43 42 42 44 45 46 47 44 43 41 37 34 33 34 32 33 33 32 32 31 30 29 31 31 32 32 31 30 30 30 28
37 43 34 34 39 42 45 48 49 49 44 47 46 45 44 42 44 42 42 42 43 36 34 32 32 31 30 30 30 31 30 30 29 29 29 30 30 31 31 32 32 30 30 29
37 38 34 33 39 42 44 46 46 46 45 44 45 44 42 40 41 43 41 37 36 34 32 31 31 30 29 30 30 30 30 30 30 30 29 31 31 31 31 31 32 32 32 32
38 35 32 30 41 41 41 45 45 40 42 43 41 39 39 38 38 38 36 35 33 32 31 29 28 28 27 27 26 28 31 32 30 28 28 30 31 31 31 30 30 33 33 33
MSLP
1013.67 1013.14 1012.37 1011.93 1011.94 1011.61 1011.69 1011.52 1011.47 1011.33 1012.68 1012.97 1011.76 1010.46 1009.75 1009.20 1008.86 1008.78 1008.66 1008.56 1008.48 1008.28 1008.62 1009.43 1010.08 1011.18 1012.11 1012.83 1013.48 1014.07 1014.85 1015.62 1016.34 1016.83 1017.27 1017.70 1018.13 1019.18 1019.36 1019.23 1019.64 1019.92 1020.30 1020.71
1013.89 1012.87 1012.22 1012.52 1012.58 1012.66 1012.22 1012.10 1011.74 1011.71 1012.61 1013.32 1011.71 1009.84 1009.15 1008.70 1007.75 1007.83 1007.71 1007.38 1007.31 1007.27 1007.57 1008.10 1009.10 1010.07 1011.14 1011.82 1012.56 1013.38 1013.99 1014.85 1015.52 1016.13 1016.73 1017.23 1017.80 1018.53 1019.24 1019.50 1019.74 1019.95 1020.22 1020.43
1013.06 1012.76 1012.87 1013.19 1013.22 1012.94 1012.50 1012.30 1012.13 1012.14 1012.92 1012.95 1012.03 1009.42 1007.81 1006.82 1006.66 1007.00 1006.85 1006.61 1006.62 1006.35 1006.49 1007.09 1008.00 1009.27 1010.32 1011.15 1011.72 1012.31 1013.02 1013.89 1014.75 1015.48 1016.19 1016.82 1017.48 1018.15 1018.97 1019.19 1019.38 1019.71 1020.01 1020.29
1013.16 1012.94 1013.46 1013.59 1013.37 1013.37 1012.81 1012.57 1012.94 1012.85 1013.26 1012.47 1012.24 1008.77 1006.97 1006.31 1005.79 1005.71 1005.68 1005.75 1005.54 1005.64 1006.16 1006.69 1007.09 1008.09 1009.33 1010.22 1011.11 1011.82 1012.50 1013.15 1013.92 1014.79 1015.28 1015.66 1016.30 1016.86 1017.28 1017.89 1018.65 1019.39 1019.86 1020.14
1012.76 1013.37 1013.62 1013.53 1013.24 1013.61 1013.53 1013.82 1013.74 1013.71 1013.55 1013.04 1012.01 1010.76 1006.49 1005.75 1004.87 1004.92 1004.84 1004.64 1004.79 1005.00 1005.44 1006.02 1006.84 1007.76 1008.59 1009.80 1010.70 1011.48 1012.18 1012.84 1013.48 1014.16 1014.59 1014.97 1015.65 1015.87 1016.38 1017.29 1018.04 1018.85 1019.54 1019.88
1013.34 1014.13 1013.84 1013.65 1014.16 1014.08 1014.49 1014.49 1014.44 1014.36 1014.03 1012.62 1010.82 1010.10 1005.08 1004.88 1004.08 1003.87 1004.30 1004.38 1004.64 1004.97 1005.51 1006.03 1006.84 1007.59 1008.41 1009.37 1010.28 1011.05 1011.66 1012.18 1012.83 1013.46 1014.03 1014.47 1014.89 1015.19 1015.75 1016.67 1017.33 1018.35 1019.19 1019.68
1013.36 1013.58 1014.00 1014.20 1014.51 1015.02 1014.63 1014.33 1014.04 1013.92 1013.62 1011.37 1010.82 1009.64 1004.95 1005.02 1004.64 1004.60 1004.68 1004.68 1004.76 1005.33 1005.96 1006.33 1006.95 1007.83 1008.47 1009.13 1009.98 1010.65 1011.21 1011.61 1012.28 1013.00 1013.59 1013.99 1014.47 1014.75 1015.04 1015.85 1016.66 1017.54 1018.39 1019.06
1012.22 1012.44 1013.22 1013.61 1012.92 1013.39 1014.03 1013.47 1013.06 1012.37 1012.60 1011.45 1011.46 1008.52 1004.95 1004.98 1004.80 1004.99 1005.29 1005.17 1005.19 1005.56 1006.10 1006.54 1006.86 1007.36 1008.16 1009.00 1009.76 1010.37 1010.75 1011.12 1011.56 1012.08 1012.77 1013.63 1014.05 1014.26 1014.51 1014.98 1015.93 1016.75 1017.27 1017.96
1011.61 1012.11 1012.61 1013.15 1012.97 1012.80 1013.58 1013.29 1012.64 1012.99 1013.03 1012.75 1010.23 1006.92 1005.19 1004.93 1005.21 1005.17 1005.16 1005.16 1005.21 1005.49 1005.77 1006.34 1006.70 1007.20 1008.05 1008.94 1009.50 1009.97 1010.53 1011.10 1011.55 1011.99 1012.39 1012.80 1013.38 1013.70 1013.93 1014.52 1014.93 1015.63 1016.36 1017.05
1011.82 1012.34 1013.13 1013.63 1013.77 1013.32 1012.95 1012.82 1013.30 1013.27 1012.71 1011.65 1008.85 1007.17 1004.93 1004.48 1004.55 1004.70 1005.05 1005.23 1005.16 1005.55 1005.86 1006.07 1006.53 1007.19 1008.06 1008.76 1009.36 1009.95 1010.31 1010.78 1011.18 1011.51 1012.01 1012.60 1012.71 1013.09 1013.47 1014.09 1014.44 1015.06 1015.84 1016.56
1012.39 1012.96 1013.85 1013.93 1013.05 1012.31 1013.14 1012.90 1012.66 1012.31 1011.91 1010.48 1009.14 1006.19 1004.66 1004.04 1004.22 1004.74 1005.29 1005.76 1005.80 1005.79 1006.03 1006.25 1006.53 1007.48 1008.04 1008.76 1009.41 1009.80 1010.07 1010.55 1010.99 1011.24 1011.68 1012.07 1012.53 1012.84 1013.18 1013.47 1013.99 1014.86 1015.59 1016.27
1013.01 1013.15 1013.15 1012.79 1012.41 1012.38 1011.84 1011.32 1011.87 1011.72 1011.11 1011.04 1010.06 1006.57 1004.39 1004.56 1004.77 1005.24 1005.52 1005.64 1005.94 1006.22 1006.27 1006.56 1007.02 1007.71 1008.27 1008.73 1009.12 1009.61 1009.83 1010.28 1010.63 1011.10 1011.40 1011.42 1012.04 1012.63 1013.00 1013.35 1013.88 1014.54 1015.14 1015.98
1014.23 1014.74 1014.74 1013.59 1013.18 1013.16 1012.53 1011.80 1011.76 1011.49 1011.65 1010.92 1009.79 1007.04 1004.42 1004.72 1004.81 1005.24 1005.47 1005.62 1005.87 1006.24 1006.55 1006.84 1007.02 1007.42 1007.80 1008.24 1008.83 1009.37 1009.69 1009.89 1010.30 1010.82 1011.15 1011.23 1011.32 1011.95 1012.23 1012.73 1013.44 1014.02 1014.56 1015.52
1015.97 1016.17 1014.87 1013.00 1011.59 1011.84 1012.40 1012.06 1011.78 1011.66 1011.21 1009.57 1009.23 1007.16 1005.04 1004.80 1005.34 1004.96 1005.20 1005.64 1005.74 1005.68 1006.15 1006.38 1006.71 1006.81 1007.04 1007.52 1007.88 1008.45 1008.79 1009.16 1009.60 1010.14 1010.52 1010.69 1010.65 1011.15 1011.42 1012.14 1012.88 1013.47 1014.03 1014.88
1017.29 1016.69 1016.07 1014.63 1013.64 1013.20 1012.62 1012.28 1012.10 1011.36 1010.47 1009.96 1008.09 1007.65 1005.62 1004.14 1005.58 1005.02 1004.92 1005.09 1005.04 1005.03 1005.48 1005.68 1005.95 1006.16 1006.30 1006.55 1007.14 1007.58 1007.88 1008.42 1008.99 1009.63 1009.88 1009.85 1010.45 1011.01 1011.17 1011.63 1012.39 1013.11 1013.62 1014.30
1018.00 1017.34 1016.82 1015.71 1014.74 1014.08 1013.19 1012.50 1011.58 1011.12 1010.49 1009.84 1008.80 1006.99 1006.09 1004.81 1005.28 1005.02 1004.99 1005.01 1004.86 1004.79 1005.07 1005.15 1005.25 1005.42 1005.74 1005.94 1006.30 1006.73 1007.22 1007.70 1008.38 1008.92 1009.34 1009.79 1010.28 1010.80 1011.12 1011.64 1012.33 1012.96 1013.52 1014.17
1017.91 1017.43 1017.19 1015.59 1014.34 1013.55 1012.42 1011.08 1010.68 1010.05 1009.68 1009.24 1008.34 1007.13 1006.51 1005.71 1005.09 1005.01 1004.73 1004.96 1004.67 1004.63 1004.68 1004.63 1004.69 1004.86 1005.10 1005.41 1005.70 1005.92 1006.30 1006.83 1007.45 1007.99 1008.70 1009.29 1009.84 1010.33 1010.78 1011.46 1012.35 1012.91 1013.40 1014.08
1017.67 1017.75 1017.52 1015.78 1014.96 1012.80 1010.55 1010.34 1009.55 1009.24 1008.80 1008.70 1008.62 1007.97 1007.16 1006.31 1005.80 1005.27 1004.77 1005.07 1004.74 1004.82 1004.66 1004.57 1004.69 1004.70 1005.03 1005.28 1005.70 1006.00 1006.51 1006.92 1007.59 1008.15 1008.49 1008.98 1009.56 1010.05 1010.56 1011.20 1011.73 1012.35 1012.91 1013.41
1016.41 1017.09 1017.00 1016.59 1014.70 1012.63 1011.16 1009.99 1009.45 1009.01 1008.26 1008.46 1008.44 1008.11 1007.41 1006.74 1006.12 1004.78 1004.24 1004.98 1004.56 1004.64 1004.72 1005.10 1005.64 1005.90 1006.00 1006.11 1006.37 1006.77 1007.12 1007.49 1007.99 1008.41 1008.83 1009.19 1009.55 1010.01 1010.43 1010.91 1011.48 1012.09 1012.70 1013.38
1015.26 1015.30 1015.82 1015.35 1013.90 1011.74 1010.14 1009.22 1009.04 1009.00 1008.54 1009.49 1009.91 1009.56 1009.15 1007.79 1006.68 1005.38 1005.76 1005.69 1005.69 1005.86 1006.05 1006.34 1006.62 1006.66 1006.74 1006.73 1007.06 1007.30 1007.27 1007.69 1008.08 1008.42 1008.77 1009.11 1009.45 1009.93 1010.44 1010.98 1011.58 1012.14 1012.73 1013.33
1014.79 1014.92 1014.76 1014.17 1012.87 1011.43 1010.34 1008.97 1009.59 1009.88 1010.17 1010.70 1011.09 1010.79 1010.24 1009.75 1009.15 1008.00 1007.42 1007.06 1006.83 1007.20 1007.28 1007.27 1007.36 1007.16 1007.16 1007.54 1007.93 1007.83 1007.88 1007.94 1008.10 1008.33 1008.71 1009.18 1009.71 1010.08 1010.42 1010.97 1011.48 1012.21 1012.92 1013.54
1014.22 1014.10 1013.61 1013.08 1012.14 1010.71 1010.15 1009.45 1009.99 1010.79 1010.93 1011.14 1011.17 1010.60 1010.20 1009.97 1009.62 1009.08 1008.23 1008.00 1007.57 1007.82 1007.91 1008.13 1008.20 1008.30 1008.24 1008.27 1008.20 1008.20 1008.34 1008.49 1008.51 1008.80 1008.98 1009.36 1009.83 1010.32 1010.64 1011.08 1011.84 1012.41 1013.13 1013.70
1013.58 1013.06 1012.63 1012.29 1010.81 1010.10 1010.16 1010.54 1010.48 1010.79 1010.80 1010.44 1010.62 1010.50 1010.23 1009.60 1009.07 1009.15 1008.73 1008.92 1008.30 1008.44 1008.61 1008.72 1008.99 1008.97 1008.98 1009.01 1008.57 1008.42 1008.73 1008.93 1009.07 1009.18 1009.74 1009.72 1010.15 1010.72 1011.01 1011.43 1011.70 1012.55 1013.37 1013.97
1012.77 1012.35 1012.08 1012.13 1010.90 1010.67 1010.38 1010.13 1010.20 1010.34 1010.57 1010.39 1010.45 1010.29 1010.37 1009.83 1009.31 1009.06 1008.84 1008.93 1008.64 1008.87 1008.99 1009.36 1009.60 1009.60 1009.71 1009.77 1009.34 1008.97 1009.08 1009.16 1009.50 1009.94 1010.31 1010.28 1010.38 1010.96 1011.66 1011.81 1012.01 1012.64 1013.13 1013.73
1012.94 1012.61 1012.04 1011.61 1010.99 1010.89 1010.28 1010.18 1010.24 1010.41 1010.59 1010.46 1010.21 1010.12 1010.04 1009.89 1009.14 1009.25 1008.91 1008.85 1008.81 1009.57 1009.91 1009.50 1009.55 1010.18 1010.62 1010.24 1010.04 1009.83 1009.48 1009.36 1009.82 1010.45 1011.08 1011.26 1010.95 1010.97 1011.61 1012.24 1012.56 1012.60 1012.94 1013.35
1012.63 1012.08 1012.09 1010.75 1010.86 1010.82 1010.29 1010.25 1010.39 1010.71 1010.52 1010.40 1010.46 1010.22 1010.00 1009.94 1009.56 1009.47 1009.28 1009.27 1009.73 1010.49 1010.24 1009.92 1010.05 1010.40 1010.78 1011.39 1011.44 1010.77 1009.96 1010.12 1009.95 1010.28 1011.32 1011.73 1011.46 1012.12 1011.96 1012.04 1012.72 1013.16 1013.37 1013.89
Wind_Speed
3 8 9 14 13 11 4 6 8 3 4 5 12 19 18 17 18 18 19 19 19 20 18 16 16 16 16 16 17 18 17 16 12 10 9 9 9 7 6 4 5 8 8 11
5 12 13 0 1 6 8 12 14 13 3 4 14 21 18 18 22 20 20 21 20 20 18 16 16 16 18 18 18 17 17 17 15 10 9 8 8 8 8 5 6 7 7 10
15 1 3 6 7 11 13 15 12 13 2 13 14 19 18 17 16 14 20 21 21 21 19 17 15 17 15 18 19 19 19 17 16 15 10 8 6 4 7 7 6 6 7 8
11 7 5 9 13 12 16 11 13 11 7 8 1 11 17 17 17 16 16 17 19 18 15 15 13 16 17 17 16 17 17 18 16 17 13 16 11 9 9 10 5 6 8 8
4 10 12 13 10 10 3 4 3 4 7 10 13 10 9 13 14 15 17 17 15 13 12 11 11 11 13 12 13 13 14 15 16 16 16 13 14 9 7 8 10 9 7 9
7 1 5 4 5 6 11 6 4 2 3 10 12 13 13 15 14 8 7 7 5 5 4 5 5 5 9 8 10 11 14 16 16 16 17 16 15 13 9 10 9 8 7 6
13 11 4 4 6 4 10 8 4 6 7 12 6 6 18 13 14 9 11 12 13 2 5 5 8 8 9 11 11 11 14 15 15 16 16 16 15 14 14 13 10 11 8 5
14 11 16 14 14 10 15 14 8 9 8 12 4 12 9 2 8 9 9 14 13 8 7 8 7 7 9 9 11 13 14 14 15 16 16 14 15 10 11 12 10 9 9 9
10 11 4 4 10 16 9 13 13 11 1 5 11 21 21 15 10 13 17 16 15 12 8 9 9 8 7 9 11 12 12 12 13 13 13 14 13 15 12 13 11 10 11 9
5 10 2 4 3 7 8 2 7 8 7 11 16 21 16 10 13 11 12 9 13 7 7 7 7 5 5 6 8 9 10 11 11 12 12 12 14 14 12 12 12 11 10 9
10 8 4 5 12 14 9 10 8 5 9 7 12 13 13 15 6 5 4 4 9 8 5 3 3 3 5 5 6 8 9 10 10 11 12 12 12 13 12 12 12 11 10 11
12 5 10 12 3 6 17 21 21 10 11 7 11 19 14 4 4 4 7 9 5 5 6 2 2 3 3 5 6 8 8 10 9 10 11 12 12 12 13 12 12 12 11 10
3 4 3 5 9 3 7 16 14 16 8 10 13 14 15 14 10 8 9 9 5 4 6 4 2 4 6 6 6 8 10 10 9 10 11 12 13 14 15 14 13 12 11 10
3 6 11 11 8 4 5 13 19 18 13 22 21 29 31 25 20 19 12 8 9 7 5 8 7 7 8 8 9 9 10 11 10 11 12 13 14 15 14 13 13 12 12 12
4 5 11 20 23 22 21 18 15 21 24 23 26 24 30 28 18 20 18 17 18 20 16 14 10 10 10 9 9 10 10 10 10 11 12 14 11 13 13 13 12 11 12 12
6 4 3 15 19 17 15 18 22 21 20 22 27 29 26 27 22 19 20 19 19 18 18 19 16 9 10 11 10 10 10 10 10 12 13 12 11 11 10 9 10 11 10 10
5 2 4 20 18 14 12 19 23 27 26 24 24 25 23 25 25 22 22 17 17 18 18 19 17 14 8 9 11 12 11 9 11 13 10 9 8 10 9 9 10 11 11 10
7 6 3 6 11 14 10 16 14 20 20 20 23 26 28 28 28 28 23 18 19 18 21 18 15 14 11 6 4 6 4 5 7 9 8 8 8 9 9 10 11 11 10 12
18 14 10 12 18 17 22 16 10 12 17 17 17 18 23 24 23 27 24 16 20 21 18 8 7 9 9 7 6 4 3 4 5 7 7 8 9 9 10 11 11 9 9 9
19 19 14 12 14 17 16 20 21 21 16 5 10 12 17 21 15 17 13 8 9 8 5 5 7 7 8 7 7 4 4 4 6 5 6 6 7 8 9 9 9 7 7 8
5 5 16 16 13 10 15 24 12 13 6 4 6 8 11 11 12 22 17 10 5 4 6 7 7 7 6 6 5 4 3 3 1 3 4 4 5 6 6 7 6 8 7 7
12 8 8 8 11 16 0 5 7 3 6 9 11 12 10 11 14 17 15 9 6 7 5 5 6 6 6 5 3 3 2 2 3 4 5 5 5 4 5 8 6 8 8 9
16 16 13 11 8 1 1 6 5 4 8 13 5 14 10 11 12 11 14 12 6 7 7 4 4 5 4 5 4 2 2 3 4 5 5 6 6 6 6 8 9 8 8 7
16 10 9 13 17 18 18 16 12 11 10 12 9 11 12 14 14 13 10 12 9 3 3 3 4 3 4 4 2 3 3 4 5 6 6 6 8 7 6 5 6 7 7 7
8 8 7 12 16 16 17 9 7 12 10 11 9 9 11 10 15 13 11 6 5 4 4 2 1 3 4 4 5 4 3 5 7 6 4 5 6 7 7 4 4 5 5 7
12 19 14 15 13 14 12 13 10 6 12 13 10 12 8 9 12 8 9 4 2 5 3 1 3 3 3 5 4 5 4 4 6 7 4 3 4 4 4 6 6 7 8 9
Wind_Direction
186 217 215 224 227 271 288 293 267 259 119 285 262 270 268 273 270 265 258 255 257 253 240 227 220 208 208 209 207 205 202 201 197 196 197 206 202 212 234 225 193 185 185 171
191 227 235 139 133 224 245 255 260 272 103 250 280 279 277 271 263 257 260 259 256 255 247 230 213 206 201 206 205 204 205 199 200 195 198 207 201 210 219 208 203 204 180 172
235 181 291 187 201 215 232 245 255 263 323 238 284 273 266 249 247 264 260 261 262 258 253 238 206 207 206 208 204 205 202 198 198 199 192 196 199 188 201 202 191 194 188 176
239 221 165 210 238 227 255 244 254 270 280 271 293 288 288 288 273 252 255 248 252 251 246 248 249 198 206 214 212 204 200 200 200 195 196 194 197 199 209 204 181 178 188 180
185 193 204 219 218 204 245 34 254 271 265 299 236 268 262 250 261 260 260 263 265 267 261 248 229 239 208 208 209 206 204 203 199 200 206 197 208 214 197 193 172 186 184 181
275 6 219 240 72 212 131 118 117 190 278 263 248 226 265 249 267 265 264 271 258 280 288 240 235 219 213 203 193 198 202 205 203 203 206 207 213 212 196 198 188 187 189 176
214 218 162 171 119 137 199 185 228 239 199 254 68 277 247 298 288 267 279 294 295 294 264 215 200 198 205 197 192 196 203 207 203 207 213 213 222 218 209 197 197 185 180 186
212 219 187 188 217 176 198 203 207 231 239 265 106 238 263 260 308 314 269 272 286 271 247 256 237 202 190 191 194 198 203 208 204 205 210 216 220 222 218 207 192 198 193 187
223 238 192 215 218 209 177 221 245 272 348 281 251 265 272 253 227 265 276 284 284 288 264 240 238 225 200 192 195 198 199 210 212 211 211 212 216 219 214 215 209 194 190 183
260 260 167 141 215 253 239 225 197 215 222 233 255 256 259 284 280 270 276 281 298 316 306 252 230 202 188 198 191 197 202 209 211 209 211 220 216 215 212 211 206 199 192 162
234 227 133 171 207 198 187 220 223 249 228 245 252 257 273 276 339 355 358 319 314 315 327 315 245 201 182 187 196 199 197 209 211 209 211 217 219 215 211 213 201 197 182 170
216 278 246 219 178 249 242 226 218 220 221 242 271 270 251 280 304 311 286 300 286 306 320 320 240 227 220 213 204 213 206 215 212 217 217 212 212 212 217 212 202 189 179 171
161 218 244 249 221 203 247 239 248 246 252 250 233 255 269 266 282 291 283 287 331 320 317 309 257 246 236 227 217 221 217 218 213 219 218 217 209 213 210 208 202 185 168 167
82 216 228 241 250 59 197 239 241 238 237 241 241 257 273 264 271 277 258 241 252 259 260 292 291 260 238 224 221 222 227 219 205 210 215 221 211 212 207 204 199 182 170 169
27 237 231 258 274 283 284 280 269 241 242 239 254 247 262 270 275 280 289 293 286 290 299 287 243 241 249 237 224 233 233 222 212 213 221 222 218 215 206 200 195 180 178 177
185 236 331 294 278 280 280 273 266 256 261 259 260 263 257 280 278 277 284 278 282 279 273 274 277 250 246 247 230 226 223 222 203 216 224 222 213 207 205 191 182 177 176 172
289 243 230 263 269 266 247 241 250 248 246 251 254 259 273 269 276 283 285 287 279 278 277 276 279 282 268 237 241 238 233 218 203 209 208 201 197 192 189 174 178 184 181 169
234 260 268 291 308 262 273 255 259 257 257 257 256 260 269 277 281 283 279 287 281 278 275 279 285 289 292 336 305 283 277 226 199 211 204 189 189 186 181 179 185 183 179 178
226 232 255 254 257 277 282 265 241 256 273 273 262 264 269 278 277 278 278 270 269 271 279 315 345 328 317 317 323 317 242 219 203 217 213 199 193 186 184 187 187 181 174 178
225 218 219 231 244 259 263 258 253 265 253 70 13 342 340 309 279 278 345 1 343 342 357 338 320 306 302 328 339 299 246 206 221 215 212 192 184 183 189 184 181 173 178 173
190 212 230 238 247 251 253 264 262 241 258 110 347 321 326 316 321 312 310 310 307 287 314 326 320 314 330 346 330 291 284 242 244 140 132 135 166 173 171 164 159 155 151 140
249 244 229 230 244 255 91 312 249 44 349 309 305 288 288 289 300 304 312 310 318 316 334 347 322 318 337 347 324 328 329 47 92 104 115 120 125 135 139 141 135 142 138 139
244 236 250 249 256 277 286 272 299 200 242 267 245 267 252 279 284 304 308 304 301 310 319 338 319 309 346 341 349 345 70 86 94 93 98 114 115 122 137 141 139 136 145 145
255 263 254 265 254 271 289 303 294 295 256 282 302 290 282 274 282 276 258 270 290 302 303 342 322 324 340 333 8 70 95 88 95 105 116 120 121 121 129 133 141 147 154 153
263 297 251 260 266 269 270 262 332 310 292 286 288 281 273 277 275 277 279 280 290 295 298 235 66 356 346 9 35 37 88 114 107 98 102 120 123 133 135 130 149 154 148 159
248 252 252 260 275 287 285 300 306 255 278 283 291 292 268 239 267 274 272 284 290 263 236 74 64 105 54 18 15 14 36 73 109 108 103 113 107 121 128 125 118 108 124 167